Weather Roundup
Issued by NWS Springfield, MO

Home | Current Version | Previous Version | Text Only | Print | Product List | Glossary On
Versions: 1 2 3 4 5 6 7 8 9 10 11 12 13 14 15 16 17 18 19 20 21 22 23 24 25 26 27 28 29 30 31 32 33 34 35 36 37 38 39 40 41 42 43 44 45 46 47 48 49 50
000
NZUS99 KSGF 271107
HRRSGF

HOURLY WEATHER
NATIONAL WEATHER SERVICE SPRINGFIELD MO
500 AM CST THU NOV 27 2014

......SGF CWA......

CITY           SKY/WX    TMP DP  RH WIND       PRES   REMARKS
SPRINGFIELD    CLOUDY    30  23  75 NW16      30.44R WCI  19
JOPLIN         FAIR      25  20  81 CALM      30.48R
WEST PLAINS    CLOUDY    31  26  82 NW8       30.38R WCI  23
ROLLA          CLOUDY    30  27  88 NW10      30.36R WCI  21
OSAGE BEACH    CLOUDY    32  25  74 NW5       30.42R WCI  27
BRANSON        PTCLDY    30  23  74 NW12G18   30.44R WCI  21

......SURROUNDING SGF CWA......

CITY           SKY/WX    TMP DP  RH WIND       PRES   REMARKS
CHANUTE        CLEAR     23  19  85 N5        30.47F WCI  17
PARSONS        CLEAR     22  19  89 CALM      30.50R
COFFEYVILLE    CLEAR     23  19  85 NW5       30.50R WCI  17
EMPORIA        CLEAR     18  16  92 NW6       30.48R WCI  10
GROVE OK       CLEAR     30  25  80 CALM      30.48F
ROGERS AR      CLEAR     27  23  85 N7        30.45R WCI  19
SILOAM SPRINGS CLEAR     25  18  74 CALM      30.47R
HARRISON AR    CLOUDY    31  23  72 NW9       30.43R WCI  23
NEAR YELLVILLE CLOUDY    34  21  60 NW8       30.44R WCI  27

......KANSAS AND MISSOURI......

CITY           SKY/WX    TMP DP  RH WIND       PRES   REMARKS
KANSAS CTY INT CLOUDY    25  20  81 N8        30.47S WCI  16
DOWNTOWN KC    CLOUDY    28  20  71 N9        30.48F WCI  19
COLUMBIA       CLOUDY    31  27  85 NW7       30.41S WCI  24
SEDALIA        CLOUDY    29  24  82 NW13G23   30.47R WCI  19
ST JOSEPH      CLOUDY    24  19  81 N9        30.50S WCI  14
ST LOUIS       CLOUDY    30  24  78 NW12      30.39R WCI  20
SPIRIT OF STL  CLOUDY    30  25  81 NW8       30.40R WCI  22
KIRKSVILLE     CLOUDY    26  22  84 NW9       30.43R WCI  17
WICHITA        PTCLDY    25  17  72 NW5       30.49S WCI  19
TOPEKA         CLOUDY    25  20  81 N8        30.50R WCI  16
OLATHE         PTCLDY    25  20  81 N8        30.45F WCI  16

......TENNESSEE......

CITY           SKY/WX    TMP DP  RH WIND       PRES   REMARKS
MEMPHIS        CLOUDY    40  28  62 NW13      30.36R WCI  32
NASHVILLE      CLOUDY    37  31  78 NW9G18    30.23R WCI  30

......ARKANSAS.......

CITY           SKY/WX    TMP DP  RH WIND       PRES   REMARKS
FAYETTEVILLE   CLEAR     27  22  81 N5        30.45R WCI  22
FT SMITH       CLEAR     31  23  72 W8        30.48R WCI  23
LITTLE ROCK    CLEAR     38  25  59 N12       30.41R WCI  30

......OKLAHOMA.......

CITY           SKY/WX    TMP DP  RH WIND       PRES   REMARKS
TULSA          CLEAR     27  22  81 NW8       30.52R WCI  19
PONCA CITY     CLEAR     25  19  78 NE6       30.50F WCI  18
MCALESTER      CLEAR     33  25  72 N10       30.50S WCI  25
OKLAHOMA CITY  CLEAR     33  23  66 NE10      30.47F WCI  25

......IOWA............

CITY           SKY/WX    TMP DP  RH WIND       PRES   REMARKS
DES MOINES     PTCLDY    11   3  70 NW15      30.48R WCI  -5
QUAD CITIES    CLOUDY    26  19  74 NW7       30.35R WCI  18

......ILLINOIS........

CITY           SKY/WX    TMP DP  RH WIND       PRES   REMARKS
QUINCY         CLOUDY    28  22  78 N14       30.39R WCI  17
CHICAGO        FLURRIES  24  18  77 NW8       30.24R WCI  15



USA.gov is the U.S. government's official web portal to all federal, state and local government web resources and services.